This is the latest recevied weather packets stored in our database for station/object W1TG-2. If no packets are shown the sender has not sent any weather packets the latest 10 day(s).
| Time | Temp. | Humidity | Pressure | Rain* | Wind** | Luminosity | Snow |
|---|---|---|---|---|---|---|---|
| 1787761444 | 24.44° C | 62% | 1016.7 hPa | 0 mm | - | - | - |
| 1787761083 | 24.44° C | 65% | 1016.8 hPa | 0 mm | - | - | - |
| 1787760724 | 24.44° C | 63% | 1016.8 hPa | 0 mm | - | - | - |
| 1787760364 | 24.44° C | 65% | 1016.8 hPa | 0 mm | - | - | - |
| 1787760003 | 24.44° C | 64% | 1016.8 hPa | 0 mm | - | - | - |
| 1787759644 | 24.44° C | 61% | 1016.7 hPa | 0 mm | - | - | - |
| 1787759284 | 25° C | 60% | 1016.8 hPa | 0 mm | - | - | - |
| 1787758923 | 25° C | 64% | 1016.8 hPa | 0 mm | - | - | - |
| 1787758563 | 25° C | 64% | 1016.8 hPa | 0 mm | - | - | - |
| 1787758204 | 25° C | 64% | 1016.8 hPa | 0 mm | - | - | - |
| 1787757844 | 25° C | 65% | 1016.9 hPa | 0 mm | - | - | - |
| 1787757483 | 25° C | 65% | 1016.9 hPa | 0 mm | - | - | - |
| 1787757124 | 25° C | 65% | 1017 hPa | 0 mm | - | - | - |
| 1787756764 | 25° C | 65% | 1017.2 hPa | 0 mm | - | - | - |
| 1787756403 | 25° C | 65% | 1017.1 hPa | 0 mm | - | - | - |
| 1787756044 | 25° C | 67% | 1017 hPa | 0 mm | - | - | - |
| 1787755684 | 24.44° C | 67% | 1017.1 hPa | 0 mm | - | - | - |
| 1787755323 | 24.44° C | 66% | 1017.1 hPa | 0 mm | - | - | - |
| 1787754963 | 24.44° C | 68% | 1017.1 hPa | 0 mm | - | - | - |
| 1787754604 | 24.44° C | 67% | 1017.1 hPa | 0 mm | - | - | - |
| 1787754244 | 23.89° C | 67% | 1017.2 hPa | 0 mm | - | - | - |
| 1787753883 | 23.89° C | 64% | 1017.3 hPa | 0 mm | - | - | - |
| 1787753524 | 23.89° C | 65% | 1017.3 hPa | 0 mm | - | - | - |
| 1787753163 | 23.89° C | 68% | 1017.3 hPa | 0 mm | - | - | - |
| 1787752803 | 24.44° C | 70% | 1017.2 hPa | 0 mm | - | - | - |
* Rain latest hour (hover to see other rain measurements)
** Current wind speed in m/s (hover to see current wind gust speed)